Location: Karlskoga
(59.3269°N, 14.5116°E)
Time: 13:34:54
(UTC+01:00)

ISS - Pass Details

Date: 04 December 2021
Orbit: 413 x 422 km, 51.6° (Epoch: 18 January)

Event Time Altitude Azimuth Distance (km) Brightness Sun altitude
Rises 17:49:57 0° 263° (W) 2,386 1.7 -18.8°
Reaches altitude 10° 17:52:58 10° 235° (SW) 1,515 0.1 -19.2°
Maximum altitude 17:54:34 13° 206° (SSW) 1,348 -0.7 -19.4°
Drops below altitude 10° 17:56:10 10° 178° (S) 1,509 -0.8 -19.6°
Enters shadow 17:57:14 - 164° (SSE) 1,757 -0.7 -19.7°
